Simultaneous Nadir Overpasses (SNOs) Predictions

Prediction of SNOs between GOES-15 and METOP-C Satellite Orbit:

Table of predicted SNOs for the next 14.0 days since TLE Epoch: 11/19/2022
Index Date Time (GOES-15) GOES-15 Lat,Lon METOP-C Lat,Lon Distance(km) Time Diff (sec)
1 11/19/2022 18:04:14 -0.20,-128.22 -0.19,-128.18 5.26 80
2 11/22/2022 05:59:55 0.20,-128.18 0.30,-127.78 45.96 80
3 11/23/2022 18:18:47 -0.19,-128.13 0.76,-132.33 479.02 80
4 11/24/2022 18:00:48 -0.19,-128.10 -0.34,-127.33 87.57 80
5 11/26/2022 06:19:47 0.18,-128.07 -0.69,-131.92 438.52 80
6 11/27/2022 05:56:28 0.18,-128.04 0.42,-126.92 127.00 80
7 11/28/2022 18:15:21 -0.17,-127.97 0.59,-131.49 399.90 80
8 11/29/2022 17:57:22 -0.17,-127.94 -0.52,-126.49 166.13 80
9 12/01/2022 06:16:20 0.16,-127.91 -0.56,-131.07 359.68 80
10 12/02/2022 05:53:00 0.17,-127.88 0.55,-126.07 205.71 80
